This is the latest recevied weather packets stored in our database for station/object KD4WLE. If no packets are shown the sender has not sent any weather packets the latest 10 day(s).
| Time | Temp. | Humidity | Pressure | Rain* | Wind** | Luminosity | Snow |
|---|---|---|---|---|---|---|---|
| 1777504528 | 27.22° C | 68% | 1012.1 hPa | 0 mm | - | 41 W/m² | - |
| 1777504223 | 27.78° C | 67% | 1011.8 hPa | 0 mm | - | 48 W/m² | - |
| 1777503919 | 27.78° C | 66% | 1011.9 hPa | 0 mm | - | 60 W/m² | - |
| 1777503615 | 27.78° C | 67% | 1011.9 hPa | 0 mm | - | 71 W/m² | - |
| 1777503313 | 27.78° C | 66% | 1011.7 hPa | 0 mm | - | 82 W/m² | - |
| 1777503009 | 28.33° C | 67% | 1011.7 hPa | 0 mm | - | 95 W/m² | - |
| 1777502707 | 28.33° C | 67% | 1012.2 hPa | 0 mm | - | 106 W/m² | - |
| 1777502403 | 28.33° C | 67% | 1012 hPa | 0 mm | - | 117 W/m² | - |
| 1777502100 | 28.33° C | 65% | 1012 hPa | 0 mm | - | 125 W/m² | - |
| 1777501797 | 28.89° C | 63% | 1011.8 hPa | 0 mm | - | 116 W/m² | - |
| 1777501494 | 28.89° C | 63% | 1012 hPa | 0 mm | - | 157 W/m² | - |
| 1777501191 | 28.89° C | 63% | 1012.1 hPa | 0 mm | - | 67 W/m² | - |
| 1777500889 | 28.89° C | 63% | 1012.1 hPa | 0 mm | - | 195 W/m² | - |
| 1777500586 | 29.44° C | 63% | 1012.2 hPa | 0 mm | - | 207 W/m² | - |
| 1777500283 | 29.44° C | 63% | 1012.2 hPa | 0 mm | - | 221 W/m² | - |
| 1777499979 | 29.44° C | 63% | 1012.1 hPa | 0 mm | - | 237 W/m² | - |
| 1777499676 | 29.44° C | 62% | 1011.9 hPa | 0 mm | - | 253 W/m² | - |
| 1777499373 | 30° C | 61% | 1012.2 hPa | 0 mm | - | 269 W/m² | - |
| 1777499071 | 29.44° C | 60% | 1012.2 hPa | 0 mm | - | 284 W/m² | - |
| 1777498767 | 30° C | 58% | 1012.3 hPa | 0 mm | - | 300 W/m² | - |
| 1777498464 | 30° C | 59% | 1012.4 hPa | 0 mm | - | 315 W/m² | - |
| 1777498160 | 30.56° C | 58% | 1012.2 hPa | 0 mm | - | 333 W/m² | - |
| 1777497858 | 30° C | 57% | 1012.2 hPa | 0 mm | - | 351 W/m² | - |
| 1777497554 | 31.11° C | 55% | 1012.3 hPa | 0 mm | - | 387 W/m² | - |
| 1777497250 | 30.56° C | 55% | 1012.4 hPa | 0 mm | - | 415 W/m² | - |
* Rain latest hour (hover to see other rain measurements)
** Current wind speed in m/s (hover to see current wind gust speed)